This demonstration page uses our WeatherBlox Daily Observations layout. Learn more.

Left ArrowRight Arrow

39.29038, -76.61219

Hourly Observations for January 26, 2022

Temp ( °F °C ) Dew Point ( °F °C ) Humidity (%) Winds ( mph kmh ) Pressure ( in mb ) Visibility ( mi km ) Precip ( " mm )
12:54 am 00:54 Mostly Cloudy 29 -1.7 10 -12.2 45 45 NNW 9 15 30.23 1024 10 16 0.00 0.00
1:54 am 01:54 Partly Cloudy 27 -2.8 10 -12.2 49 49 NNW 7 11 30.26 1025 10 16 0.00 0.00
2:54 am 02:54 Mostly Clear 25 -3.9 9 -12.8 50 50 NNW 6 9 30.28 1025 10 16 0.00 0.00
3:54 am 03:54 Mostly Clear 24 -4.4 8 -13.3 50 50 NNW 3 6 30.29 1026 10 16 0.00 0.00
4:54 am 04:54 Clear 23 -5 7 -13.9 50 50 Calm 30.29 1026 10 16 0.00 0.00
5:54 am 05:54 Clear 23 -5 7 -13.9 50 50 Calm 30.32 1027 10 16 0.00 0.00
6:54 am 06:54 Mostly Clear 23 -5 6 -14.4 48 48 N 3 6 30.35 1028 10 16 0.00 0.00
7:54 am 07:54 Mostly Sunny 23 -5 9 -12.8 55 55 Calm 30.37 1028 10 16 0.00 0.00
8:54 am 08:54 Mostly Sunny 26 -3.3 6 -14.4 42 42 VRB 6 9 30.39 1029 10 16 0.00 0.00
9:54 am 09:54 Mostly Sunny 29 -1.7 6 -14.4 38 38 NW 9 15 30.40 1029 10 16 0.00 0.00
10:54 am 10:54 Mostly Sunny 31 -0.6 7 -13.9 36 36 NW 10 17 30.40 1029 10 16 0.00 0.00
11:54 am 11:54 Mostly Sunny 31 -0.6 6 -14.4 35 35 NNW 13 20 30.38 1029 10 16 0.00 0.00
12:54 pm 12:54 Mostly Sunny 32 0 7 -13.9 35 35 WNW 10 17 30.37 1028 10 16 0.00 0.00
1:54 pm 13:54 Mostly Sunny 33 0.6 6 -14.4 32 32 WNW 9 15 30.35 1028 10 16 0.00 0.00
2:54 pm 14:54 Mostly Sunny 32 0 7 -13.9 35 35 WNW 7 11 30.35 1028 10 16 0.00 0.00
3:54 pm 15:54 Mostly Sunny 32 0 6 -14.4 33 33 WNW 9 15 30.36 1028 10 16 0.00 0.00
4:54 pm 16:54 Mostly Sunny 30 -1.1 4 -15.6 33 33 NNW 8 13 30.39 1029 10 16 0.00 0.00
5:54 pm 17:54 Clear 27 -2.8 5 -15 39 39 NW 6 9 30.41 1030 10 16 0.00 0.00
6:54 pm 18:54 Clear 26 -3.3 5 -15 40 40 NW 3 6 30.43 1031 10 16 0.00 0.00
7:54 pm 19:54 Clear 25 -3.9 7 -13.9 46 46 VRB 6 9 30.45 1031 10 16 0.00 0.00
8:54 pm 20:54 Clear 25 -3.9 6 -14.4 44 44 N 3 6 30.46 1032 10 16 0.00 0.00
9:54 pm 21:54 Clear 23 -5 7 -13.9 50 50 N 5 7 30.47 1032 10 16 0.00 0.00
10:54 pm 22:54 Clear 21 -6.1 7 -13.9 54 54 Calm 30.47 1032 10 16 0.00 0.00
11:54 pm 23:54 Clear 19 -7.2 8 -13.3 62 62 Calm 30.48 1032 10 16 0.00 0.00

Powered by AerisWeather